FW1747 Weather Reports


Display with metric or nautical units.
time (UTC)temp
F
wind
direction
speed
MPH
gust
MPH
rain 1hr
in
rain 24hr
in
rain mn
in
humidity
%
barometer
mb
20260505011549 69 235 0.0 1.0 0.00 0.00 0.00 61 1011.2
20260505010042 71 190 0.0 0.0 0.00 0.00 0.00 60 1011.3
20260505004542 73 284 0.0 0.0 0.00 0.00 0.00 59 1011.3
20260505003040 71 205 0.0 0.0 0.00 0.00 0.00 60 1011.3
20260505001544 72 149 0.0 0.0 0.00 0.00 0.00 59 1011.3
20260505000042 73 160 0.0 0.0 0.00 0.00 0.00 56 1011.5
20260504234537 73 209 0.0 0.0 0.00 0.00 0.00 57 1011.5
20260504233034 71 224 0.0 0.0 0.00 0.00 0.00 60 1011.6
20260504231533 70 88 0.0 0.0 0.00 0.00 0.00 60 1011.8
20260504230033 71 76 0.0 0.0 0.00 0.00 0.00 59 1011.9
20260504224537 70 165 0.0 0.0 0.00 0.00 0.00 59 1012.1
20260504223029 70 63 0.0 0.0 0.00 0.00 0.00 58 1012.3
20260504221525 69 192 0.0 0.0 0.00 0.00 0.00 61 1012.4
20260504220023 68 89 0.0 0.0 0.00 0.00 0.00 61 1012.6
20260504214526 68 190 0.0 0.0 0.00 0.00 0.00 60 1012.7
20260504213022 67 257 0.0 0.0 0.00 0.00 0.00 64 1012.8
20260504211518 67 243 0.0 1.0 0.00 0.00 0.00 63 1013.0
20260504210025 66 154 0.0 0.0 0.00 0.00 0.00 63 1013.2
20260504204526 65 108 0.0 0.0 0.00 0.00 0.00 64 1013.3
20260504203009 64 271 0.0 0.0 0.00 0.00 0.00 67 1013.5
20260504201508 65 173 0.0 0.0 0.00 0.00 0.00 65 1013.5
20260504200005 65 195 0.0 1.0 0.00 0.00 0.00 64 1013.7
20260504194505 64 147 0.0 0.0 0.00 0.00 0.00 66 1013.7
20260504193002 62 165 0.0 0.0 0.00 0.00 0.00 70 1013.7
20260504191501 61 158 0.0 0.0 0.00 0.00 0.00 72 1013.9
20260504190059 59 251 0.0 0.0 0.00 0.00 0.00 74 1014.0
20260504184602 59 180 0.0 0.0 0.00 0.00 0.00 74 1014.1
20260504183104 58 76 0.0 1.0 0.00 0.00 0.00 75 1014.1
20260504181556 58 233 0.0 0.0 0.00 0.00 0.00 74 1014.0
20260504180116 58 181 0.0 0.0 0.00 0.00 0.00 74 1014.0
20260504174556 57 146 0.0 0.0 0.00 0.00 0.00 75 1013.9
20260504173107 57 193 0.0 0.0 0.00 0.00 0.00 75 1013.9
20260504171601 57 192 0.0 0.0 0.00 0.00 0.00 75 1013.9
20260504081551 58 174 0.0 0.0 0.00 0.00 0.00 70 1009.9
20260504044526 72 333 0.0 0.0 0.00 0.00 0.00 44 1007.8
20260504043026 73 260 0.0 0.0 0.00 0.00 0.00 45 1007.6
20260504041538 75 260 0.0 0.0 0.00 0.00 0.00 44 1007.4
20260504040024 76 266 0.0 0.0 0.00 0.00 0.00 42 1007.3
20260504034524 77 245 0.0 0.0 0.00 0.00 0.00 42 1007.1
20260504033023 78 344 0.0 0.0 0.00 0.00 0.00 42 1007.1
20260504031523 80 274 0.0 0.0 0.00 0.00 0.00 38 1007.0
20260504030022 82 244 0.0 0.0 0.00 0.00 0.00 35 1007.0
20260504024522 84 246 0.0 0.0 0.00 0.00 0.00 30 1006.9
20260504023021 85 246 0.0 0.0 0.00 0.00 0.00 30 1006.9
20260504021520 86 281 0.0 0.0 0.00 0.00 0.00 29 1006.8
20260504020031 87 267 0.0 0.0 0.00 0.00 0.00 28 1006.9
20260504014522 87 217 0.0 1.0 0.00 0.00 0.00 28 1007.0
20260504013017 87 332 0.0 0.0 0.00 0.00 0.00 27 1007.0